Location: Newark
(45.2500°N, 7.5833°E)
Time: 23:24:23
(UTC+00:00)

BEESAT 2 - Pass Details

Date: 01 March 2020
Orbit: 494 x 533 km, 64.9° (Epoch: 28 March)

Event Time Altitude Azimuth Distance (km) Brightness Sun altitude
Rises 19:42:12 0° 308° (NW) 2,686 ? -26.0°
Reaches altitude 10° 19:45:05 10° 287° (WNW) 1,788 ? -26.5°
Maximum altitude 19:47:32 16° 249° (WSW) 1,444 ? -26.9°
Enters shadow 19:49:34 12° 216° (SW) 1,675 ? -27.3°
